SCP
0 0 0 0 0 0 0 0 0 0 0 0 0 0 0 0 0 0 0 0 0 0 0 0 0 0 0 0 0 0 0 0 0 0 0 0 0 0 0 0 0 0 0
0 0 0 0 0 0 0 0 0 0 0 0 0 0 0 0 0 0 0 0 0 0 0 0 0 0 0 0 0 0 0 0 0 0 0 0 0 0 0 0 0 0 0
0 0 0 0 0 0 0 0 0 0 0 0 0 0 0 0 0 0 0 0 0 0 0 0 0 0 0 0 0 0 0 0 0 0 0 0 0 0 0 0 0 0 0
0 0 0 0 0 0 0 0 0 0 0 0 0 0 0 0 0 0 0 0 0 0 0 0 0 0 0 0 0 0 0 0 0 0 0 0 0 0 0 0 0 0 0
0 0 0 0 0 0 0 0 0 0 0 0 0 0 0 0 0 0 0 0 0 0 0 0 0 0 0 0 0 0 0 0 0 0 0 0 0 0 0 0 0 0 0
0 0 0 0 0 0 0 0 0 0 0 0 0 0 0 0 0 0 0 0 0 0 0 0 0 0 0 0 0 0 0 0 0 0 0 0 0 0 0 0 0 0 0
0 0 0 0 0 0 0 0 0 0 0 0 0 0 0 0 0 0 0 0 0 0 0 0 0 0 0 0 0 0 0 0 0 0 0 0 0 0 0 0 0 0 0
0 0 0 0 0 0 0 0 0 0 0 0 0 0 0 0 0 0 0 0 0 0 0 0 0 0 0 0 0 0 0 0 0 0 0 0 0 0 0 0 0 0 0
0 0 0 0 0 0 0 0 0 0 0 0 0 0 0 0 0 0 0 0 0 0 0 0 0 0 0 0 0 0 0 0 0 0 0 0 0 0 0 0 0 0 0
0 0 0 0 0 0 0 0 0 0 0 0 0 0 0 0 0 0 0 0 0 0 0 0 0 0 0 0 0 0 0 0 0 0 0 0 0 0 0 0 0 0 0
0 0 0 0 0 0 0 0 0 0 0 0 0 0 0 0 0 0 0 0 0 0 0 0 0 0 0 0 0 0 0 0 0 0 0 0 0 0 0 0 0 0 0
0 0 0 0 0 0 0 0 0 0 0 0 0 0 0 0 0 0 0 0 0 0 0 0 0 0 0 0 0 0 0 0 0 0 0 0 0 0 0 0 0 0 0
0 0 0 0 0 0 0 0 0 0 0 0 0 0 0 0 0 0 0 0 0 0 0 0 0 0 0 0 0 0 0 0 0 0 0 0 0 0 0 0 0 0 0
0 0 0 0 0 0 0 0 0 0 0 0 0 0 0 0 0 0 0 0 0 0 0 0 0 0 0 0 0 0 0 0 0 0 0 0 0 0 0 0 0 0 0
0 0 0 0 0 0 0 0 0 0 0 0 0 0 0 0 0 0 0 0 0 0 0 0 0 0 0 0 0 0 0 0 0 0 0 0 0 0 0 0 0 0 0
0 0 0 0 0 0 0 0 0 0 0 0 0 0 0 0 0 0 0 0 0 0 0 0 0 0 0 0 0 0 0 0 0 0 0 0 0 0 0 0 0 0 0
0 0 0 0 0 0 0 0 0 0 0 0 0 0 0 0 0 0 0 0 0 0 0 0 0 0 0 0 0 0 0 0 0 0 0 0 0 0 0 0 0 0 0
0 0 0 0 0 0 0 0 0 0 0 0 0 0 0 0 0 0 0 0 0 0 0 0 0 0 0 0 0 0 0 0 0 0 0 0 0 0 0 0 0 0 0
0 0 0 0 0 0 0 0 0 0 0 0 0 0 0 0 0 0 0 0 0 0 0 0 0 0 0 0 0 0 0 0 0 0 0 0 0 0 0 0 0 0 0
0 0 0 0 0 0 0 0 0 0 0 0 0 0 0 0 0 0 0 0 0 0 0 0 0 0 0 0 0 0 0 0 0 0 0 0 0 0 0 0 0 0 0
0 0 0 0 0 0 0 0 0 0 0 0 0 0 0 0 0 0 0 0 0 0 0 0 0 0 0 0 0 0 0 0 0 0 0 0 0 0 0 0 0 0 0
0 0 0 0 0 0 0 0 0 0 0 0 0 0 0 0 0 0 0 0 0 0 0 0 0 0 0 0 0 0 0 0 0 0 0 0 0 0 0 0 0 0 0
0 0 0 0 0 0 0 0 0 0 0 0 0 0 0 0 0 0 0 0 0 0 0 0 0 0 0 0 0 0 0 0 0 0 0 0 0 0 0 0 0 0 0
0 0 0 0 0 0 0 0 0 0 0 0 0 0 0 0 0 0 0 0 0 0 0 0 0 0 0 0 0 0 0 0 0 0 0 0 0 0 0 0 0 0 0
0 0 0 0 0 0 0 0 0 0 0 0 0 0 0 0 0 0 0 0 0 0 0 0 0 0 0 0 0 0 0 0 0 0 0 0 0 0 0 0 0 0 0
0 0 0 0 0 0 0 0 0 0 0 0 0 0 0 0 0 0 0 0 0 0 0 0 0 0 0 0 0 0 0 0 0 0 0 0 0 0 0 0 0 0 0
Wind_Speed
2 3 5 7 8 9 10 11 11 11 10 10 10 10 9 8 7 7 6 5 4 4 3 3 4 4 4 4 4 5 5 5 5 5 6 6 7 7 7 7 6 4 7
2 2 4 7 8 9 10 10 11 11 11 10 9 9 9 8 8 7 6 6 5 3 3 2 2 3 3 4 4 4 4 5 5 5 5 5 6 7 7 7 7 4 7
1 2 3 8 9 9 10 10 10 11 11 11 10 9 8 8 8 7 7 6 5 4 3 2 1 2 2 3 3 3 4 5 5 5 4 2 3 6 7 7 7 7 7
2 2 3 8 9 10 10 10 10 10 11 11 11 10 9 8 8 8 7 6 6 5 5 3 2 1 1 2 3 3 3 4 4 4 2 2 2 5 7 7 8 7 7
3 3 4 9 9 10 10 10 10 10 10 10 11 10 10 10 9 8 8 7 6 5 5 4 3 2 1 1 2 3 4 3 3 2 2 2 2 5 7 7 7 7 7
4 3 4 9 9 10 10 10 10 10 10 10 10 10 10 10 10 9 8 8 7 6 5 5 3 3 1 0 1 2 3 3 3 2 2 2 3 6 7 7 7 8 8
4 4 4 9 9 10 10 11 10 11 10 10 10 10 10 10 10 10 9 8 7 7 6 5 4 3 3 1 1 1 2 2 2 2 2 3 4 8 8 8 8 8 8
4 4 5 9 10 10 10 11 11 11 11 11 11 11 11 11 11 10 10 9 8 7 7 6 4 4 3 3 2 2 1 1 2 2 3 3 6 9 9 9 9 9 9
4 4 4 4 6 9 10 10 10 11 11 11 11 11 11 11 11 11 11 10 9 9 8 6 5 4 4 4 4 3 2 1 2 2 3 3 7 10 10 10 9 10 10
4 4 3 4 4 4 5 9 10 10 10 11 11 11 11 10 10 11 11 11 11 10 9 8 7 5 5 5 5 4 3 1 2 3 2 4 8 10 10 10 10 10 10
2 2 2 3 3 3 3 6 7 8 8 8 8 10 8 4 4 6 9 11 12 11 10 10 9 7 6 5 6 5 3 1 2 3 3 6 9 10 11 11 11 12 12
1 0 1 2 2 2 3 3 3 3 3 4 3 4 3 3 4 6 9 11 12 11 10 10 10 8 5 2 4 4 2 3 3 3 4 8 10 11 11 11 11 12 12
3 1 0 1 1 2 2 2 2 2 2 3 3 3 2 2 3 3 3 5 6 7 5 6 6 4 3 2 2 2 3 2 2 3 4 9 11 12 12 12 12 12 13
3 2 1 0 1 1 1 1 1 1 1 2 2 3 2 2 2 2 2 3 2 3 4 3 3 4 4 3 3 3 3 3 3 3 4 9 11 13 14 13 13 13 13
4 3 2 1 1 0 1 1 1 1 1 1 2 2 2 1 2 2 2 2 2 2 3 3 3 4 4 4 3 4 4 4 4 4 4 8 11 13 14 15 14 14 14
4 4 2 2 2 1 0 1 1 1 1 1 1 2 2 1 1 2 2 2 2 2 3 3 4 3 4 4 4 4 5 5 5 5 4 6 10 12 14 15 15 15 15
5 4 3 3 2 1 1 1 1 1 1 1 2 2 2 2 2 2 2 2 3 3 3 3 4 3 3 4 5 5 5 5 5 6 5 5 5 9 12 14 14 14 15
4 4 4 2 2 2 2 2 1 1 1 1 2 2 3 3 2 2 2 3 3 3 2 3 3 3 3 4 4 5 5 5 6 6 6 5 5 5 8 12 13 14 14
5 4 3 2 2 2 2 1 1 1 2 2 2 2 3 3 3 2 2 3 3 2 2 3 3 3 4 5 5 5 4 5 6 6 6 6 6 6 5 8 12 13 14
4 3 3 2 2 1 1 1 1 2 2 2 2 3 3 3 3 3 2 3 3 2 3 3 4 3 3 4 6 7 5 6 5 6 7 6 6 6 6 6 6 8 12
3 3 3 2 2 1 0 0 1 2 2 2 2 3 3 4 3 3 3 3 3 3 4 4 4 4 4 3 3 5 5 6 6 6 5 5 6 6 6 6 5 5 6
4 4 3 3 3 2 2 2 2 2 2 3 3 3 4 4 4 4 3 4 3 3 4 4 4 3 4 2 1 3 5 4 4 5 5 5 6 5 5 7 7 7 5
4 5 4 4 3 3 2 1 1 1 2 2 3 3 4 4 5 5 5 5 4 4 4 5 5 5 5 3 3 2 3 4 5 4 5 5 5 5 5 5 7 8 7
6 4 4 4 3 3 2 2 2 2 3 4 4 4 5 5 5 5 6 6 5 5 5 6 5 5 5 5 3 4 5 4 4 5 4 3 5 6 6 6 6 7 8
4 3 3 3 3 2 2 3 3 3 4 4 4 5 6 5 5 6 6 5 6 5 6 6 6 6 5 6 5 4 5 5 6 6 8 5 4 5 5 6 6 6 8
2 2 2 2 3 3 3 3 4 4 5 5 6 6 5 4 5 6 6 6 6 6 7 7 7 7 7 7 6 5 5 5 5 6 8 8 7 5 5 5 6 6 6
Wind_Direction
295 297 344 32 43 46 44 43 44 45 45 47 52 54 56 58 60 64 70 79 89 101 117 127 134 138 135 138 142 149 155 159 162 162 160 157 152 150 147 143 137 125 131
229 302 21 46 49 50 47 44 44 43 43 43 46 50 51 52 53 55 57 60 66 77 95 118 131 140 135 135 140 145 156 159 153 154 158 161 161 159 156 152 152 151 144
77 4 35 54 52 51 48 44 43 42 42 42 42 44 47 48 47 47 48 51 50 51 54 74 111 148 152 150 150 158 157 163 159 155 156 156 176 175 169 164 164 161 157
75 36 46 59 53 49 48 46 44 43 42 39 38 38 40 42 42 42 40 39 38 39 38 37 43 88 168 174 167 169 166 161 163 160 156 162 186 187 181 178 177 171 166
60 35 48 61 55 50 48 46 44 43 41 38 37 35 33 34 33 35 34 32 28 28 29 29 28 36 46 176 187 186 178 168 162 152 162 177 187 201 194 191 187 182 177
59 36 51 60 55 51 49 46 43 41 39 37 36 32 29 29 27 26 26 26 21 17 19 20 14 20 7 339 209 209 197 180 161 159 180 195 199 212 205 198 195 193 189
70 41 48 59 55 51 48 46 43 42 39 36 33 31 29 27 24 21 19 20 16 11 6 4 2 3 355 325 261 241 220 195 166 181 196 207 216 217 215 211 204 199 195
84 55 42 53 55 50 48 46 43 41 39 36 32 30 27 25 21 19 17 14 12 6 3 357 353 350 345 331 298 264 257 206 193 207 214 214 222 225 223 218 212 209 205
73 66 49 44 47 48 47 44 42 39 38 36 33 29 27 24 21 17 14 10 10 8 0 354 345 340 335 326 315 295 277 285 206 218 227 226 232 233 229 223 218 216 216
60 56 49 43 44 40 37 40 39 38 36 34 31 28 25 21 17 15 12 8 7 5 2 355 345 340 337 331 323 318 297 255 228 228 227 236 240 239 236 230 225 222 222
64 44 50 47 37 33 37 38 35 34 31 29 25 24 20 10 5 8 6 6 4 1 0 358 351 344 342 331 325 318 302 244 238 239 230 245 243 244 241 237 234 229 226
160 93 56 55 41 32 32 30 22 26 22 18 12 9 10 7 5 7 3 5 1 357 355 354 351 345 338 315 316 322 273 261 238 245 246 248 245 248 246 243 239 236 230
185 175 149 88 49 43 26 20 15 12 11 8 5 2 2 4 358 3 356 354 352 352 348 343 345 341 326 311 300 296 283 261 245 246 252 253 250 250 250 248 243 240 235
183 200 206 156 61 34 31 12 4 1 357 353 346 349 3 1 355 349 347 338 342 340 333 333 328 324 319 307 286 282 283 272 257 250 254 261 254 253 253 250 247 244 241
191 205 214 200 181 77 29 339 2 336 327 321 329 333 344 348 335 329 326 328 324 321 322 319 318 319 316 306 297 284 276 271 267 256 257 265 261 254 255 255 250 247 245
200 206 210 212 206 186 204 268 283 293 302 318 319 312 315 303 302 310 312 314 310 306 303 302 298 298 299 295 294 288 276 270 264 261 256 259 265 261 256 257 256 251 248
201 202 207 210 199 203 231 254 277 277 293 305 305 307 301 285 280 288 301 305 299 297 298 303 301 296 303 307 296 290 285 277 271 264 261 253 252 261 260 258 259 257 251
195 200 214 207 201 226 239 252 271 282 287 289 293 301 299 294 281 281 292 293 293 299 299 299 301 300 299 301 295 287 284 280 278 268 262 257 249 251 257 260 261 260 257
196 197 209 212 208 227 246 259 274 283 282 283 287 287 291 294 289 277 277 283 293 298 294 294 301 286 291 296 291 283 274 271 271 272 263 255 249 245 245 259 260 263 260
195 197 204 215 219 221 253 311 310 298 285 279 276 278 282 286 285 278 278 282 289 294 291 282 282 282 274 284 290 290 276 266 260 256 256 253 247 244 242 248 247 257 260
191 197 204 210 227 196 227 267 287 286 294 296 285 280 281 282 282 277 283 287 282 279 280 277 272 284 282 289 297 299 284 261 253 251 247 247 246 245 240 241 240 241 251
198 205 213 215 220 222 221 224 225 252 274 277 282 289 282 282 282 283 276 275 273 275 280 276 269 269 278 271 277 309 307 300 265 251 243 242 244 244 244 247 241 239 243
211 210 215 222 227 231 226 243 316 328 311 300 295 291 285 282 279 274 272 269 267 259 266 267 257 252 269 262 223 230 269 278 310 273 245 242 243 248 250 247 244 242 240
217 214 217 222 228 232 214 209 231 265 273 269 275 279 283 276 275 274 271 267 265 261 261 262 259 246 252 260 249 233 238 248 271 295 281 253 254 255 249 257 252 243 239
211 209 217 225 237 239 227 219 232 258 266 278 282 283 284 281 274 272 270 267 266 264 261 261 261 250 244 246 244 245 253 253 244 257 279 278 269 249 248 246 247 248 242
215 214 215 226 252 247 240 237 234 252 271 282 287 288 288 286 281 273 270 266 264 262 260 259 257 251 247 247 245 240 244 249 246 248 264 274 277 271 263 250 245 246 246